FW2543 Weather Reports


time (UTC)temp
F
wind
direction
speed
knots
gust
knots
rain 1hr
in
rain 24hr
in
rain mn
in
humidity
%
barometer
mb
20260506104835 53 120 1.7 10.4 0.00 3.85 0.00 1 1018.9
20260506104335 53 197 3.5 8.7 0.00 3.85 0.00 1 1018.8
20260506103833 53 296 2.6 9.6 0.00 3.85 0.00 1 1018.8
20260506103332 53 281 4.3 10.4 0.00 3.85 0.00 1 1018.8
20260506102831 53 141 3.5 11.3 0.00 3.85 0.00 1 1018.8
20260506102331 53 269 4.3 11.3 0.00 3.85 0.00 1 1018.8
20260506101832 53 0 3.5 10.4 0.00 3.85 0.00 1 1018.7
20260506101333 53 62 3.5 9.6 0.00 3.85 0.00 1 1018.7
20260506100831 53 354 4.3 9.6 0.00 3.85 0.00 1 1018.7
20260506100331 53 327 2.6 6.1 0.00 3.85 0.00 1 1018.7
20260506095832 53 317 1.7 9.6 0.00 3.85 0.00 1 1018.8
20260506095330 53 0 2.6 9.6 0.00 3.85 0.00 1 1018.7
20260506094830 53 281 3.5 8.7 0.00 3.85 0.00 1 1018.8
20260506094329 53 296 3.5 7.8 0.00 3.85 0.00 1 1018.8
20260506093825 53 333 1.7 6.1 0.00 3.85 0.00 1 1018.8
20260506093319 53 0 1.7 9.6 0.00 3.86 0.00 1 1018.8
20260506092818 53 296 3.5 9.6 0.00 3.86 0.00 1 1018.8
20260506092313 54 282 2.6 8.7 0.00 3.86 0.00 1 1018.7
20260506091809 54 254 3.5 10.4 0.00 3.86 0.00 1 1018.6
20260506091307 53 272 3.5 10.4 0.00 3.86 0.00 1 1018.6
20260506090804 54 0 2.6 10.4 0.00 3.86 0.00 1 1018.6
20260506090304 54 0 3.5 10.4 0.00 3.86 0.00 1 1018.7
20260506090134 54 338 2.6 11.3 0.00 3.86 0.00 1 1018.6
20260506090129 54 337 4.3 10.4 0.00 3.86 0.00 1 1018.6
20260506084803 54 0 3.5 11.3 0.00 3.86 0.00 1 1018.7
20260506084556 54 0 3.5 12.2 0.00 3.86 0.00 1 1018.7
20260506084047 54 265 3.5 12.2 0.00 3.86 0.00 1 1018.7
20260506083305 54 4 3.5 9.6 0.00 3.86 0.00 1 1018.7
20260506082804 54 285 3.5 9.6 0.00 3.86 0.00 1 1018.7
20260506082305 54 286 3.5 9.6 0.00 3.87 0.00 1 1018.8
20260506081803 54 18 3.5 9.6 0.00 3.87 0.00 1 1018.8
20260506081303 54 241 2.6 8.7 0.00 3.87 0.00 1 1018.8
20260506080805 54 296 1.7 9.6 0.00 3.88 0.00 1 1018.9
20260506080303 54 0 1.7 10.4 0.00 3.88 0.00 1 1018.8
20260506073305 53 207 3.5 11.3 0.00 3.90 0.00 1 1018.5
20260506072804 53 1 4.3 11.3 0.00 3.90 0.00 1 1018.6
20260506072551 53 265 3.5 11.3 0.00 3.90 0.00 1 1018.5
20260506071804 53 321 4.3 11.3 0.00 3.91 0.00 1 1018.5
20260506071553 54 278 6.1 11.3 0.00 3.91 0.00 1 1018.4
20260506070804 54 97 0.9 11.3 0.00 3.91 0.00 1 1018.5
20260506070235 54 0 4.3 10.4 0.00 3.91 0.00 1 1018.4
20260506062229 54 282 5.2 10.4 0.00 3.91 3.91 1 1018.1
20260506061729 54 121 2.6 11.3 0.00 3.91 3.91 1 1018.1
20260506061229 54 327 2.6 13.9 0.00 3.91 3.91 1 1018.1
20260506060730 54 278 2.6 13.9 0.00 3.92 3.91 1 1018.1
20260506060229 54 0 1.7 11.3 0.00 3.92 3.91 1 1018.0
20260506051228 55 0 3.5 12.2 0.00 3.93 3.91 1 1017.8
20260506050728 55 320 6.1 13.9 0.00 3.94 3.91 1 1017.8
20260506050227 55 264 5.2 13.9 0.00 3.94 3.91 1 1017.8
20260506044727 55 18 3.5 13.0 0.00 3.95 3.91 1 1017.7
20260506044517 55 31 2.6 13.0 0.00 3.95 3.91 1 1017.6
20260506043728 55 282 3.5 14.8 0.00 3.95 3.91 1 1017.6
20260506043227 55 293 4.3 14.8 0.00 3.95 3.91 1 1017.6
20260506042726 55 303 4.3 12.2 0.00 3.95 3.91 1 1017.5
20260506042228 54 23 3.5 13.9 0.00 3.95 3.91 1 1017.4
20260506042014 54 14 4.3 13.9 0.00 3.95 3.91 1 1017.3
20260506041226 55 327 4.3 12.2 0.00 3.95 3.91 1 1017.3
20260506040726 55 0 5.2 14.8 0.00 3.95 3.91 1 1017.1
20260506040513 55 0 2.6 14.8 0.00 3.95 3.91 1 1017.0
20260506035726 55 183 3.5 11.3 0.00 3.95 3.91 1 1016.9
20260506035310 55 259 3.5 13.0 0.00 3.95 3.91 1 1016.8
20260506035257 55 13 4.3 13.0 0.00 3.95 3.91 1 1016.9
20260506034226 55 289 4.3 14.8 0.00 3.95 3.91 1 1016.8
20260506033727 55 0 4.3 14.8 0.00 3.95 3.91 1 1016.6
20260506033226 55 238 6.1 16.5 0.00 3.95 3.91 1 1016.6
20260506032725 55 142 8.7 16.5 0.00 3.95 3.91 1 1016.6
20260506032226 55 231 9.6 15.6 0.00 3.95 3.91 1 1016.5
20260506031726 55 24 3.5 13.9 0.00 3.95 3.91 1 1016.5
20260506031229 55 247 4.3 13.9 0.00 3.95 3.91 1 1016.4
20260506030726 55 274 4.3 13.9 0.00 3.95 3.91 1 1016.4
20260506030226 55 264 6.1 16.5 0.00 3.95 3.91 1 1016.3
20260506025726 55 0 5.2 17.4 0.00 3.95 3.91 1 1016.3
20260506025226 56 320 4.3 17.4 0.00 3.95 3.91 1 1016.1
20260506024726 56 197 5.2 18.2 0.00 3.95 3.91 1 1016.2
20260506024512 56 130 4.3 18.2 0.00 3.95 3.91 1 1016.2
20260506023724 56 264 7.8 16.5 0.00 3.95 3.91 1 1016.2
20260506023301 56 258 7.8 20.9 0.00 3.95 3.91 1 1016.1
20260506023248 56 250 5.2 20.9 0.00 3.95 3.91 1 1016.1
20260506022225 56 264 4.3 18.2 0.00 3.95 3.91 1 1016.1
20260506021725 56 230 7.8 18.2 0.00 3.95 3.91 1 1016.0
20260506021511 56 96 4.3 17.4 0.00 3.95 3.91 1 1015.9
20260506020723 56 13 7.8 19.1 0.00 3.95 3.91 1 1015.8
20260506020225 56 250 8.7 19.1 0.00 3.95 3.91 1 1015.9
20260506015724 57 265 8.7 19.1 0.00 3.95 3.91 1 1015.9
20260506015223 57 69 4.3 16.5 0.00 3.95 3.91 1 1015.8
20260506014724 57 224 9.6 20.0 0.00 3.95 3.91 1 1015.8
20260506014223 57 209 9.6 20.0 0.00 3.95 3.91 1 1015.8
20260506013724 58 227 7.8 18.2 0.00 3.95 3.91 1 1015.9
20260506013224 58 268 9.6 19.1 0.00 3.95 3.91 1 1015.9
20260506012722 58 238 9.6 20.9 0.00 3.95 3.91 1 1015.9
20260506012301 59 271 9.6 19.1 0.00 3.95 3.91 1 1015.9
20260506012249 58 271 9.6 20.9 0.00 3.95 3.91 1 1015.9
20260506011222 59 269 6.1 19.1 0.00 3.95 3.91 1 1015.9
20260506010724 58 348 9.6 20.0 3.84 3.95 3.91 1 1015.8
20260506010221 58 0 11.3 20.0 3.84 3.95 3.91 1 1015.8
20260506005723 59 289 7.8 19.1 3.84 0.11 3.91 1 1015.8
20260506005223 59 289 7.8 19.1 3.84 0.11 3.91 1 1015.8
20260506004723 59 251 12.2 20.0 3.84 0.11 3.91 1 1015.7
20260506004257 59 97 7.0 15.6 3.84 0.11 3.91 1 1015.7
20260506004246 59 272 13.0 20.0 3.84 0.11 3.91 1 1015.7
20260506003222 58 290 7.8 20.0 3.84 0.11 3.91 1 1015.5
20260506002721 58 266 10.4 23.5 3.84 0.11 3.91 1 1015.6
20260506002222 58 17 11.3 23.5 3.84 0.11 3.91 1 1015.4
20260506001722 58 272 8.7 20.9 3.84 0.11 3.91 1 1015.5
20260506001222 58 189 9.6 19.1 3.84 0.11 3.91 1 1015.5
20260506000719 58 309 8.7 18.2 0.00 0.11 0.07 1 1015.5
20260506000222 58 258 7.8 19.1 0.00 0.11 0.07 1 1015.5
20260505235720 58 303 10.4 20.9 0.00 0.11 0.07 1 1015.5
20260505235506 58 234 7.0 23.5 0.00 0.11 0.07 1 1015.6
20260505234722 57 282 13.0 23.5 0.00 0.11 0.07 1 1015.5
20260505234220 58 257 13.0 20.9 0.00 0.11 0.07 1 1015.6
20260505233720 58 231 13.9 20.9 0.00 0.11 0.07 1 1015.6
20260505233221 58 276 6.1 20.0 0.00 0.11 0.07 1 1015.5
20260505232721 58 243 5.2 20.0 0.00 0.11 0.07 1 1015.6
20260505232504 58 272 7.8 22.6 0.00 0.11 0.07 1 1015.7
20260505231721 58 258 10.4 22.6 0.00 0.11 0.07 1 1015.6
20260505231219 58 272 11.3 23.5 0.00 0.11 0.07 1 1015.7
20260505230720 58 293 10.4 24.3 0.00 0.11 0.07 1 1015.6
20260505230508 59 0 14.8 24.3 0.00 0.11 0.07 1 1015.6
20260505230053 60 264 8.7 20.0 0.00 0.11 0.07 1 1015.5
20260505225751 59 237 11.3 23.5 0.00 0.11 0.07 1 1015.5
20260505224721 60 261 11.3 20.9 0.00 0.11 0.07 1 1015.5
20260505224220 60 309 9.6 20.9 0.00 0.11 0.07 1 1015.5
20260505223718 60 154 10.4 18.2 0.00 0.11 0.07 1 1015.6
20260505223218 59 265 5.2 22.6 0.00 0.11 0.07 1 1015.5
20260505222718 58 269 8.7 22.6 0.00 0.11 0.07 1 1015.6
20260505222217 58 233 8.7 20.9 0.00 0.11 0.07 1 1015.6
20260505221717 57 13 11.3 20.0 0.00 0.11 0.07 1 1015.7
20260505221218 58 353 9.6 18.2 0.00 0.11 0.07 1 1015.8
20260505220717 58 0 5.2 17.4 0.00 0.11 0.07 1 1015.8
20260505220218 58 269 8.7 18.2 0.00 0.11 0.07 1 1015.8
20260505215717 58 290 7.8 19.1 0.00 0.11 0.07 1 1015.9
20260505215217 58 250 6.1 19.1 0.00 0.11 0.07 1 1015.9
20260505214959 58 275 7.0 19.1 0.00 0.11 0.07 1 1015.8
20260505214217 57 296 5.2 19.1 0.00 0.11 0.07 1 1015.9
20260505213716 57 257 12.2 20.0 0.00 0.11 0.07 1 1015.9
20260505213217 57 310 10.4 20.9 0.00 0.11 0.07 1 1015.9
20260505212716 57 266 11.3 20.9 0.00 0.11 0.07 1 1016.0
20260505212216 58 281 7.8 29.5 0.00 0.11 0.07 1 1016.0
20260505211958 58 230 8.7 29.5 0.00 0.11 0.07 1 1016.0
20260505211541 58 207 4.3 19.1 0.00 0.11 0.07 1 1015.9
20260505211535 59 257 8.7 22.6 0.00 0.11 0.07 1 1016.0
20260505210217 58 266 13.0 19.1 0.00 0.11 0.07 1 1015.9
20260505205717 59 275 11.3 19.1 0.00 0.11 0.07 1 1015.9
20260505205215 59 0 6.1 17.4 0.00 0.11 0.07 1 1015.9
20260505204715 59 271 9.6 19.1 0.00 0.11 0.07 1 1015.9
20260505204215 59 269 7.0 19.1 0.00 0.11 0.07 1 1015.9
20260505203716 59 292 7.0 20.9 0.00 0.11 0.07 1 1015.9
20260505203215 59 106 3.5 20.9 0.00 0.11 0.07 1 1015.9
20260505202716 60 290 8.7 20.0 0.00 0.11 0.07 1 1015.9
20260505202217 60 0 7.0 20.0 0.00 0.11 0.07 1 1015.9
20260505201959 61 279 6.1 19.1 0.00 0.11 0.07 1 1016.0
20260505201217 62 240 5.2 17.4 0.00 0.11 0.07 1 1015.8
20260505200716 62 299 5.2 15.6 0.00 0.11 0.07 1 1016.0
20260505200216 62 338 3.5 20.9 0.00 0.11 0.07 1 1015.8
20260505195716 61 11 11.3 20.9 0.00 0.11 0.07 1 1015.8
20260505195217 60 302 6.1 20.9 0.00 0.11 0.07 1 1016.0
20260505194713 60 261 6.1 20.9 0.00 0.11 0.07 1 1016.0
20260505194457 60 243 10.4 20.9 0.00 0.11 0.07 1 1016.0
20260505193952 60 279 10.4 20.0 0.00 0.11 0.07 1 1016.1
20260505193457 60 292 5.2 15.6 0.00 0.11 0.07 1 1016.1
20260505192717 60 0 8.7 15.6 0.00 0.11 0.07 1 1016.0
20260505192216 60 305 3.5 13.0 0.00 0.11 0.07 1 1016.1
20260505191714 59 21 5.2 20.0 0.00 0.11 0.07 1 1016.1
20260505191215 59 25 4.3 20.0 0.00 0.11 0.07 1 1016.0
20260505190714 59 266 4.3 20.0 0.00 0.11 0.07 1 1016.0
20260505190214 58 0 5.2 20.0 0.00 0.11 0.07 1 1015.8
20260505185715 58 275 7.8 18.2 0.00 0.11 0.07 1 1015.9
20260505185214 57 288 4.3 20.0 0.00 0.11 0.07 1 1015.9
20260505184714 57 56 9.6 20.0 0.00 0.11 0.07 1 1015.8
20260505184504 57 323 3.5 18.2 0.00 0.11 0.07 1 1015.8
20260505183715 57 92 7.0 16.5 0.00 0.11 0.07 1 1015.8
20260505183500 57 336 5.2 19.1 0.00 0.11 0.07 1 1015.9
20260505182713 57 262 6.1 20.9 0.00 0.11 0.07 1 1015.9
20260505182213 57 268 7.8 20.9 0.01 0.11 0.07 1 1015.9
20260505181713 57 27 6.1 16.5 0.01 0.11 0.07 1 1015.9
20260505181213 57 4 3.5 16.5 0.01 0.11 0.07 1 1015.9
20260505180713 57 34 2.6 16.5 0.01 0.11 0.07 1 1015.8
20260505180213 56 288 7.0 17.4 0.01 0.11 0.07 1 1015.6
20260505175714 56 103 4.3 17.4 0.01 0.10 0.07 1 1015.6
20260505175219 55 274 10.4 17.4 0.01 0.10 0.07 1 1015.6
20260505174712 55 207 7.8 16.5 0.01 0.10 0.07 1 1015.5
20260505174212 55 0 7.0 14.8 0.01 0.10 0.07 1 1015.5
20260505173712 55 338 2.6 15.6 0.01 0.10 0.07 1 1015.5
20260505173212 55 241 5.2 16.5 0.01 0.10 0.07 1 1015.6
20260505172712 54 275 7.0 16.5 0.01 0.10 0.07 1 1015.5
20260505172213 54 266 7.8 16.5 0.00 0.10 0.06 1 1015.5
20260505171712 54 258 7.0 16.5 0.00 0.10 0.06 1 1015.5
20260505171212 54 299 8.7 18.2 0.00 0.10 0.06 1 1015.4
20260505170713 54 0 5.2 18.2 0.00 0.10 0.06 1 1015.4
20260505170211 54 0 4.3 16.5 0.00 0.10 0.06 1 1015.3
20260505165954 54 44 4.3 16.5 0.00 0.10 0.06 1 1015.4
20260505165248 54 0 6.1 15.6 0.00 0.10 0.06 1 1015.5
20260505165236 54 68 3.5 15.6 0.00 0.10 0.06 1 1015.4
20260505164212 54 285 5.2 15.6 0.00 0.10 0.06 1 1015.4
20260505163712 54 261 7.0 15.6 0.00 0.10 0.06 1 1015.4
20260505163212 54 134 3.5 15.6 0.00 0.10 0.06 1 1015.4
20260505162710 54 288 3.5 13.9 0.00 0.10 0.06 1 1015.5
20260505162210 54 278 5.2 15.6 0.00 0.10 0.06 1 1015.4
20260505161711 53 250 4.3 15.6 0.00 0.10 0.06 1 1015.3
20260505161210 53 276 4.3 12.2 0.00 0.10 0.06 1 1015.2
20260505161000 53 56 5.2 13.0 0.00 0.10 0.06 1 1015.2
20260505160212 53 75 3.5 13.9 0.00 0.10 0.06 1 1015.2
20260505153211 53 319 5.2 18.2 0.00 0.10 0.06 1 1015.0
20260505152709 53 290 5.2 20.0 0.00 0.10 0.06 1 1015.0
20260505152210 53 269 8.7 20.0 0.00 0.10 0.06 1 1014.9
20260505151710 53 247 5.2 18.2 0.00 0.10 0.06 1 1014.9
20260505151209 53 255 8.7 18.2 0.00 0.10 0.06 1 1014.9
20260505150710 53 0 3.5 15.6 0.00 0.10 0.06 1 1014.9
20260505150210 53 313 7.0 15.6 0.00 0.10 0.06 1 1014.8
20260505140207 53 281 7.8 15.6 0.00 0.10 0.06 1 1014.5
20260505130206 52 259 6.1 14.8 0.00 0.10 0.06 1 1014.2
20260505124705 52 283 8.7 14.8 0.00 0.10 0.06 1 1014.2
20260505124206 52 281 4.3 14.8 0.00 0.10 0.06 1 1014.2
20260505123707 52 228 9.6 14.8 0.00 0.10 0.06 1 1014.2
20260505123203 52 118 5.2 17.4 0.00 0.10 0.06 1 1014.2
20260505122702 52 244 8.7 18.2 0.00 0.10 0.06 1 1014.2
20260505122205 52 247 5.2 18.2 0.00 0.10 0.06 1 1014.2
20260505121706 52 247 11.3 17.4 0.00 0.10 0.06 1 1014.2
20260505121205 51 272 3.5 18.2 0.00 0.10 0.06 1 1014.2
20260505120705 51 255 9.6 18.2 0.00 0.10 0.06 1 1014.2
20260505120204 51 279 7.0 17.4 0.00 0.10 0.06 1 1014.0
20260505115706 51 0 7.8 15.6 0.00 0.10 0.06 1 1014.2
20260505115205 51 7 7.0 16.5 0.00 0.10 0.06 1 1014.2
20260505114947 51 0 9.6 16.5 0.00 0.10 0.06 1 1014.2
20260505114204 51 255 6.1 14.8 0.00 0.10 0.06 1 1014.2
20260505113703 51 0 6.1 14.8 0.00 0.10 0.06 1 1014.0
20260505113203 51 251 7.8 14.8 0.00 0.10 0.06 1 1014.2
20260505112947 51 237 7.8 13.9 0.00 0.10 0.06 1 1014.4
20260505112451 51 251 5.2 13.9 0.00 0.10 0.06 1 1014.4
20260505111702 51 0 9.6 14.8 0.00 0.10 0.06 1 1014.3
20260505111203 51 252 7.8 14.8 0.00 0.10 0.06 1 1014.3
20260505110702 50 264 9.6 13.9 0.00 0.10 0.06 1 1014.2
20260505110203 50 268 6.1 18.2 0.00 0.10 0.06 1 1014.3